| time (UTC) | temp F | wind direction | speed MPH | gust MPH | rain 1hr in | rain 24hr in | rain mn in | humidity % | barometer mb |
| 20260504100604 | 56 | 205 | 14.0 | 18.0 | 0.00 | 0.00 | 0.00 | 71 | 1020.0 |
| 20260504100107 | 57 | 214 | 11.0 | 16.0 | 0.00 | 0.00 | 0.00 | 75 | 1020.2 |
| 20260504090104 | 57 | 212 | 9.0 | 15.0 | 0.00 | 0.00 | 0.00 | 72 | 1020.0 |
| 20260504081550 | 57 | 198 | 8.0 | 17.0 | 0.00 | 0.00 | 0.00 | 77 | 1020.0 |
| 20260504081049 | 57 | 160 | 7.0 | 16.0 | 0.00 | 0.00 | 0.00 | 78 | 1019.9 |
| 20260504080548 | 57 | 193 | 8.0 | 12.0 | 0.00 | 0.00 | 0.00 | 79 | 1019.9 |
| 20260504050525 | 54 | 122 | 0.0 | 6.0 | 0.00 | 0.00 | 0.00 | 74 | 1020.2 |
| 20260504050025 | 55 | 108 | 1.0 | 8.0 | 0.00 | 0.00 | 0.00 | 72 | 1020.3 |
| 20260504045524 | 56 | 146 | 3.0 | 11.0 | 0.00 | 0.00 | 0.00 | 72 | 1020.4 |
| 20260504045024 | 56 | 212 | 6.0 | 12.0 | 0.00 | 0.00 | 0.00 | 72 | 1020.3 |
| 20260504044534 | 57 | 206 | 10.0 | 12.0 | 0.00 | 0.00 | 0.00 | 72 | 1020.3 |
| 20260504044022 | 57 | 173 | 6.0 | 13.0 | 0.00 | 0.00 | 0.00 | 72 | 1020.4 |
| 20260504043521 | 56 | 223 | 9.0 | 13.0 | 0.00 | 0.00 | 0.00 | 72 | 1020.4 |
| 20260504043023 | 55 | 214 | 6.0 | 10.0 | 0.00 | 0.00 | 0.00 | 76 | 1020.4 |
| 20260504042518 | 55 | 203 | 4.0 | 8.0 | 0.00 | 0.00 | 0.00 | 75 | 1020.3 |
| 20260504042019 | 55 | 200 | 4.0 | 8.0 | 0.00 | 0.00 | 0.00 | 75 | 1020.4 |
| 20260504041517 | 55 | 156 | 4.0 | 8.0 | 0.00 | 0.00 | 0.00 | 73 | 1020.4 |
| 20260504041016 | 55 | 152 | 3.0 | 8.0 | 0.00 | 0.00 | 0.00 | 73 | 1020.4 |
| 20260504040519 | 54 | 188 | 5.0 | 8.0 | 0.00 | 0.00 | 0.00 | 73 | 1020.3 |
| 20260504040013 | 54 | 205 | 3.0 | 7.0 | 0.00 | 0.00 | 0.00 | 73 | 1020.3 |
| 20260504035513 | 53 | 134 | 2.0 | 7.0 | 0.00 | 0.00 | 0.00 | 73 | 1020.3 |
| 20260504035012 | 53 | 198 | 2.0 | 6.0 | 0.00 | 0.00 | 0.00 | 74 | 1020.2 |
| 20260504034514 | 53 | 193 | 1.0 | 5.0 | 0.00 | 0.00 | 0.00 | 73 | 1020.2 |
| 20260504034012 | 54 | 148 | 2.0 | 5.0 | 0.00 | 0.00 | 0.00 | 74 | 1020.1 |
| 20260504033512 | 53 | 113 | 1.0 | 4.0 | 0.00 | 0.00 | 0.00 | 73 | 1020.1 |
| 20260504033012 | 53 | 136 | 1.0 | 3.0 | 0.00 | 0.00 | 0.00 | 74 | 1020.1 |
| 20260504032512 | 52 | 181 | 0.0 | 2.0 | 0.00 | 0.00 | 0.00 | 75 | 1020.0 |
| 20260504032014 | 53 | 100 | 0.0 | 2.0 | 0.00 | 0.00 | 0.00 | 75 | 1019.9 |
| 20260504031512 | 53 | 99 | 0.0 | 4.0 | 0.00 | 0.00 | 0.00 | 74 | 1019.9 |
| 20260504031012 | 53 | 134 | 0.0 | 4.0 | 0.00 | 0.00 | 0.00 | 73 | 1019.9 |
| 20260504030510 | 53 | 121 | 0.0 | 3.0 | 0.00 | 0.00 | 0.00 | 73 | 1019.8 |
| 20260504030010 | 53 | 91 | 0.0 | 4.0 | 0.00 | 0.00 | 0.00 | 72 | 1019.8 |
| 20260504025510 | 53 | 154 | 1.0 | 4.0 | 0.00 | 0.00 | 0.00 | 72 | 1019.9 |
| 20260504025013 | 53 | 116 | 1.0 | 2.0 | 0.00 | 0.00 | 0.00 | 72 | 1019.9 |
| 20260504024511 | 52 | 104 | 0.0 | 2.0 | 0.00 | 0.00 | 0.00 | 72 | 1019.8 |
| 20260504024012 | 52 | 98 | 0.0 | 2.0 | 0.00 | 0.00 | 0.00 | 73 | 1019.8 |
| 20260504023510 | 53 | 103 | 0.0 | 2.0 | 0.00 | 0.00 | 0.00 | 73 | 1019.8 |
| 20260504023010 | 53 | 96 | 0.0 | 3.0 | 0.00 | 0.00 | 0.00 | 72 | 1019.9 |
| 20260504022512 | 53 | 151 | 0.0 | 3.0 | 0.00 | 0.00 | 0.00 | 72 | 1019.9 |
| 20260504022009 | 53 | 143 | 1.0 | 3.0 | 0.00 | 0.00 | 0.00 | 72 | 1019.9 |
| 20260504021511 | 53 | 110 | 0.0 | 2.0 | 0.00 | 0.00 | 0.00 | 72 | 1019.9 |
| 20260504021009 | 54 | 96 | 0.0 | 3.0 | 0.00 | 0.00 | 0.00 | 71 | 1019.9 |
| 20260504020508 | 54 | 100 | 1.0 | 3.0 | 0.00 | 0.00 | 0.00 | 71 | 1019.9 |
| 20260504020015 | 55 | 122 | 2.0 | 6.0 | 0.00 | 0.00 | 0.00 | 70 | 1019.9 |
| 20260504015508 | 56 | 165 | 1.0 | 6.0 | 0.00 | 0.00 | 0.00 | 69 | 1019.8 |
| 20260504015007 | 56 | 134 | 2.0 | 5.0 | 0.00 | 0.00 | 0.00 | 71 | 1019.8 |
| 20260504014507 | 56 | 210 | 1.0 | 6.0 | 0.00 | 0.00 | 0.00 | 68 | 1019.7 |
| 20260504014006 | 57 | 195 | 2.0 | 6.0 | 0.00 | 0.00 | 0.00 | 65 | 1019.7 |
| 20260504013506 | 59 | 231 | 2.0 | 5.0 | 0.00 | 0.00 | 0.00 | 66 | 1019.6 |
| 20260504013010 | 59 | 224 | 3.0 | 5.0 | 0.00 | 0.00 | 0.00 | 67 | 1019.7 |
| 20260504012511 | 59 | 231 | 3.0 | 5.0 | 0.00 | 0.00 | 0.00 | 65 | 1019.6 |
| 20260504012006 | 59 | 239 | 3.0 | 6.0 | 0.00 | 0.00 | 0.00 | 63 | 1019.5 |
| 20260504011507 | 59 | 248 | 3.0 | 7.0 | 0.00 | 0.00 | 0.00 | 61 | 1019.5 |
| 20260504011009 | 59 | 243 | 5.0 | 7.0 | 0.00 | 0.00 | 0.00 | 61 | 1019.5 |
| 20260504010507 | 59 | 243 | 4.0 | 6.0 | 0.00 | 0.00 | 0.00 | 63 | 1019.5 |
| 20260504010005 | 59 | 242 | 4.0 | 6.0 | 0.00 | 0.00 | 0.00 | 61 | 1019.5 |
| 20260504005504 | 60 | 239 | 4.0 | 6.0 | 0.00 | 0.00 | 0.00 | 65 | 1019.5 |
| 20260504005005 | 60 | 249 | 5.0 | 6.0 | 0.00 | 0.00 | 0.00 | 57 | 1019.5 |
| 20260504004504 | 60 | 262 | 4.0 | 6.0 | 0.00 | 0.00 | 0.00 | 55 | 1019.5 |
| 20260504004004 | 60 | 262 | 4.0 | 6.0 | 0.00 | 0.00 | 0.00 | 54 | 1019.4 |
| 20260504003503 | 60 | 258 | 4.0 | 6.0 | 0.00 | 0.00 | 0.00 | 53 | 1019.3 |
| 20260504003003 | 60 | 254 | 4.0 | 7.0 | 0.00 | 0.00 | 0.00 | 55 | 1019.2 |
| 20260504002503 | 60 | 242 | 5.0 | 7.0 | 0.00 | 0.00 | 0.00 | 52 | 1019.2 |
| 20260504002003 | 60 | 257 | 6.0 | 7.0 | 0.00 | 0.00 | 0.00 | 51 | 1019.1 |
| 20260504001503 | 60 | 253 | 5.0 | 7.0 | 0.00 | 0.00 | 0.00 | 51 | 1019.0 |
| 20260504001006 | 60 | 257 | 5.0 | 8.0 | 0.00 | 0.00 | 0.00 | 54 | 1019.0 |
| 20260504000504 | 60 | 256 | 6.0 | 8.0 | 0.00 | 0.00 | 0.00 | 51 | 1019.0 |
| 20260504000002 | 60 | 250 | 5.0 | 7.0 | 0.00 | 0.00 | 0.00 | 55 | 1018.9 |
| 20260503235501 | 60 | 276 | 5.0 | 7.0 | 0.00 | 0.00 | 0.00 | 52 | 1018.8 |
| 20260503235001 | 60 | 271 | 5.0 | 8.0 | 0.00 | 0.00 | 0.00 | 49 | 1018.7 |
| 20260503234503 | 60 | 272 | 6.0 | 8.0 | 0.00 | 0.00 | 0.00 | 47 | 1018.7 |
| 20260503234001 | 61 | 285 | 5.0 | 8.0 | 0.00 | 0.00 | 0.00 | 53 | 1018.6 |
| 20260503233502 | 61 | 283 | 5.0 | 8.0 | 0.00 | 0.00 | 0.00 | 45 | 1018.6 |
| 20260503233106 | 61 | 281 | 5.0 | 8.0 | 0.00 | 0.00 | 0.00 | 44 | 1018.6 |
| 20260503232601 | 61 | 300 | 4.0 | 8.0 | 0.00 | 0.00 | 0.00 | 46 | 1018.6 |
| 20260503232100 | 61 | 287 | 6.0 | 9.0 | 0.00 | 0.00 | 0.00 | 50 | 1018.6 |
| 20260503231600 | 61 | 277 | 6.0 | 11.0 | 0.00 | 0.00 | 0.00 | 44 | 1018.6 |
| 20260503231103 | 61 | 276 | 7.0 | 11.0 | 0.00 | 0.00 | 0.00 | 42 | 1018.6 |
| 20260503230600 | 61 | 293 | 8.0 | 11.0 | 0.00 | 0.00 | 0.00 | 48 | 1018.7 |
| 20260503225558 | 61 | 299 | 6.0 | 11.0 | 0.00 | 0.00 | 0.00 | 48 | 1018.7 |
| 20260503225102 | 61 | 281 | 8.0 | 11.0 | 0.00 | 0.00 | 0.00 | 42 | 1018.6 |
| 20260503224558 | 61 | 288 | 8.0 | 13.0 | 0.00 | 0.00 | 0.00 | 45 | 1018.7 |
| 20260503224058 | 61 | 274 | 9.0 | 13.0 | 0.00 | 0.00 | 0.00 | 46 | 1018.8 |
| 20260503223557 | 60 | 288 | 9.0 | 14.0 | 0.00 | 0.00 | 0.00 | 40 | 1018.7 |
| 20260503223057 | 60 | 300 | 11.0 | 14.0 | 0.00 | 0.00 | 0.00 | 44 | 1018.5 |
| 20260503222556 | 60 | 295 | 9.0 | 13.0 | 0.00 | 0.00 | 0.00 | 47 | 1018.6 |
| 20260503222055 | 60 | 271 | 8.0 | 12.0 | 0.00 | 0.00 | 0.00 | 44 | 1018.6 |
| 20260503221555 | 60 | 275 | 7.0 | 10.0 | 0.00 | 0.00 | 0.00 | 46 | 1018.8 |
| 20260503221055 | 60 | 289 | 7.0 | 11.0 | 0.00 | 0.00 | 0.00 | 44 | 1018.8 |
| 20260503220555 | 60 | 263 | 7.0 | 11.0 | 0.00 | 0.00 | 0.00 | 49 | 1018.8 |
| 20260503220054 | 60 | 273 | 6.0 | 13.0 | 0.00 | 0.00 | 0.00 | 49 | 1018.8 |
| 20260503215554 | 60 | 283 | 9.0 | 14.0 | 0.00 | 0.00 | 0.00 | 47 | 1018.8 |
| 20260503215052 | 60 | 291 | 8.0 | 14.0 | 0.00 | 0.00 | 0.00 | 41 | 1018.7 |
| 20260503214601 | 60 | 283 | 12.0 | 14.0 | 0.00 | 0.00 | 0.00 | 45 | 1018.7 |
| 20260503214052 | 60 | 279 | 8.0 | 15.0 | 0.00 | 0.00 | 0.00 | 49 | 1018.7 |
| 20260503213551 | 59 | 293 | 9.0 | 11.0 | 0.00 | 0.00 | 0.00 | 46 | 1018.8 |
| 20260503213052 | 59 | 289 | 7.0 | 10.0 | 0.00 | 0.00 | 0.00 | 47 | 1018.8 |
| 20260503212550 | 59 | 284 | 7.0 | 11.0 | 0.00 | 0.00 | 0.00 | 50 | 1018.8 |
| 20260503212049 | 59 | 274 | 7.0 | 18.0 | 0.00 | 0.00 | 0.00 | 49 | 1018.7 |
| 20260503211554 | 59 | 285 | 10.0 | 18.0 | 0.00 | 0.00 | 0.00 | 44 | 1018.7 |
| 20260503211049 | 59 | 296 | 9.0 | 13.0 | 0.00 | 0.00 | 0.00 | 46 | 1018.7 |
| 20260503210548 | 59 | 287 | 10.0 | 13.0 | 0.00 | 0.00 | 0.00 | 48 | 1018.7 |
| 20260503210047 | 58 | 288 | 8.0 | 22.0 | 0.00 | 0.00 | 0.00 | 47 | 1018.7 |
| 20260503205547 | 58 | 310 | 12.0 | 22.0 | 0.00 | 0.00 | 0.00 | 49 | 1018.8 |
| 20260503205047 | 58 | 286 | 12.0 | 16.0 | 0.00 | 0.00 | 0.00 | 47 | 1018.8 |
| 20260503204554 | 58 | 284 | 13.0 | 16.0 | 0.00 | 0.00 | 0.00 | 49 | 1018.9 |
| 20260503204045 | 58 | 293 | 8.0 | 16.0 | 0.00 | 0.00 | 0.00 | 47 | 1018.9 |
| 20260503203544 | 58 | 284 | 11.0 | 16.0 | 0.00 | 0.00 | 0.00 | 47 | 1018.8 |
| 20260503203049 | 58 | 279 | 7.0 | 20.0 | 0.00 | 0.00 | 0.00 | 47 | 1019.0 |
| 20260503202543 | 57 | 302 | 9.0 | 20.0 | 0.00 | 0.00 | 0.00 | 45 | 1019.0 |
| 20260503202043 | 57 | 293 | 8.0 | 12.0 | 0.00 | 0.00 | 0.00 | 48 | 1019.2 |
| 20260503201542 | 57 | 296 | 6.0 | 17.0 | 0.00 | 0.00 | 0.00 | 49 | 1019.1 |
| 20260503201043 | 57 | 272 | 10.0 | 17.0 | 0.00 | 0.00 | 0.00 | 50 | 1019.2 |
| 20260503200541 | 57 | 288 | 9.0 | 16.0 | 0.00 | 0.00 | 0.00 | 47 | 1019.3 |
| 20260503200040 | 57 | 281 | 12.0 | 18.0 | 0.00 | 0.00 | 0.00 | 47 | 1019.4 |
| 20260503195539 | 57 | 288 | 15.0 | 18.0 | 0.00 | 0.00 | 0.00 | 51 | 1019.4 |
| 20260503195139 | 57 | 285 | 12.0 | 21.0 | 0.00 | 0.00 | 0.00 | 48 | 1019.4 |
| 20260503194539 | 56 | 297 | 10.0 | 14.0 | 0.00 | 0.00 | 0.00 | 49 | 1019.4 |
| 20260503194038 | 56 | 274 | 10.0 | 16.0 | 0.00 | 0.00 | 0.00 | 52 | 1019.6 |
| 20260503193537 | 56 | 269 | 11.0 | 18.0 | 0.00 | 0.00 | 0.00 | 58 | 1019.6 |
| 20260503193037 | 56 | 279 | 11.0 | 18.0 | 0.00 | 0.00 | 0.00 | 46 | 1019.6 |
| 20260503192536 | 56 | 278 | 14.0 | 19.0 | 0.00 | 0.00 | 0.00 | 50 | 1019.7 |
| 20260503192034 | 56 | 287 | 14.0 | 19.0 | 0.00 | 0.00 | 0.00 | 47 | 1019.8 |
| 20260503191534 | 56 | 283 | 11.0 | 15.0 | 0.00 | 0.00 | 0.00 | 51 | 1019.8 |
| 20260503191033 | 55 | 283 | 10.0 | 13.0 | 0.00 | 0.00 | 0.00 | 49 | 1019.8 |
| 20260503190532 | 55 | 291 | 10.0 | 14.0 | 0.00 | 0.00 | 0.00 | 47 | 1019.9 |
| 20260503190045 | 55 | 286 | 10.0 | 18.0 | 0.00 | 0.00 | 0.00 | 49 | 1019.9 |
| 20260503185530 | 55 | 307 | 14.0 | 18.0 | 0.00 | 0.00 | 0.00 | 46 | 1020.0 |
| 20260503185029 | 55 | 306 | 11.0 | 17.0 | 0.00 | 0.00 | 0.00 | 50 | 1020.0 |
| 20260503184530 | 55 | 309 | 12.0 | 18.0 | 0.00 | 0.00 | 0.00 | 46 | 1020.1 |
| 20260503184029 | 55 | 316 | 12.0 | 17.0 | 0.00 | 0.00 | 0.00 | 55 | 1020.2 |
| 20260503183527 | 54 | 309 | 7.0 | 20.0 | 0.00 | 0.00 | 0.00 | 47 | 1020.1 |
| 20260503183027 | 54 | 294 | 12.0 | 20.0 | 0.00 | 0.00 | 0.00 | 44 | 1020.3 |
| 20260503182526 | 54 | 314 | 8.0 | 13.0 | 0.00 | 0.00 | 0.00 | 46 | 1020.3 |
| 20260503182026 | 54 | 308 | 9.0 | 17.0 | 0.00 | 0.00 | 0.00 | 47 | 1020.4 |
| 20260503181526 | 54 | 334 | 11.0 | 17.0 | 0.00 | 0.00 | 0.00 | 48 | 1020.4 |
| 20260503181026 | 54 | 338 | 10.0 | 19.0 | 0.00 | 0.00 | 0.00 | 51 | 1020.3 |
| 20260503180528 | 54 | 309 | 15.0 | 19.0 | 0.00 | 0.00 | 0.00 | 47 | 1020.3 |
| 20260503180036 | 54 | 307 | 12.0 | 17.0 | 0.00 | 0.00 | 0.00 | 50 | 1020.4 |
| 20260503175523 | 53 | 290 | 10.0 | 15.0 | 0.00 | 0.00 | 0.00 | 51 | 1020.4 |
| 20260503175023 | 53 | 329 | 9.0 | 22.0 | 0.00 | 0.00 | 0.00 | 51 | 1020.5 |
| 20260503174523 | 53 | 311 | 11.0 | 22.0 | 0.00 | 0.00 | 0.00 | 54 | 1020.5 |
| 20260503174023 | 53 | 309 | 10.0 | 18.0 | 0.00 | 0.00 | 0.00 | 52 | 1020.5 |
| 20260503173523 | 53 | 301 | 10.0 | 15.0 | 0.00 | 0.00 | 0.00 | 50 | 1020.6 |
| 20260503173023 | 53 | 311 | 9.0 | 15.0 | 0.00 | 0.00 | 0.00 | 51 | 1020.7 |
| 20260503172522 | 52 | 301 | 7.0 | 16.0 | 0.00 | 0.00 | 0.00 | 47 | 1020.7 |
| 20260503172021 | 52 | 314 | 9.0 | 18.0 | 0.00 | 0.00 | 0.00 | 46 | 1020.8 |
| 20260503171533 | 52 | 335 | 9.0 | 16.0 | 0.00 | 0.00 | 0.00 | 48 | 1020.8 |
| 20260503171020 | 52 | 302 | 6.0 | 16.0 | 0.00 | 0.00 | 0.00 | 56 | 1020.8 |
| 20260503170520 | 52 | 321 | 11.0 | 19.0 | 0.00 | 0.00 | 0.00 | 51 | 1020.8 |
| 20260503150512 | 49 | 335 | 16.0 | 26.0 | 0.00 | 0.00 | 0.00 | 54 | 1021.3 |
| 20260503131001 | 47 | 311 | 17.0 | 25.0 | 0.00 | 0.00 | 0.00 | 69 | 1021.0 |
| 20260503130501 | 47 | 318 | 18.0 | 24.0 | 0.00 | 0.00 | 0.00 | 68 | 1021.0 |
| 20260503110549 | 46 | 308 | 17.0 | 23.0 | 0.00 | 0.00 | 0.00 | 72 | 1019.8 |